Location: Arroyo Retuerta
(40.5469°N, 4.3534°W)
Time: 12:18:20
(UTC+00:00)

Cosmos 1867 - Pass Details

Date: 01 June 2020
Orbit: 778 x 798 km, 65.0° (Epoch: 05 July)

Event Time Altitude Azimuth Distance (km) Brightness Sun altitude
Rises 23:10:12 0° 330° (NNW) 3,309 8.0 -25.4°
Reaches altitude 10° 23:12:39 10° 333° (NNW) 2,375 7.0 -25.6°
Maximum altitude 23:18:06 66° 56° (NE) 870 3.7 -25.8°
Enters shadow 23:18:46 60° 95° (E) 910 3.7 -25.9°
